<?xml version="1.0" encoding="UTF-8" standalone="no" ?>
<gpx xmlns="http://www.topografix.com/GPX/1/1" xmlns:xsi="http://www.w3.org/2001/XMLSchema-instance" xsi:schemaLocation="http://www.topografix.com/GPX/1/1 http://www.topografix.com/GPX/1/1/gpx.xsd" version="1.1" creator="VisuGPX - https://www.visugpx.com">
  <metadata>
    <name>chateldon 25 kms 21 01 2012</name>
    <desc><![CDATA[rando au depart de chateldon ,en boucle terrain qui ne garde pas trop l eau.]]></desc>
  </metadata>
  <trk>
    <name><![CDATA[track]]></name>
    <trkseg>
      <trkpt lat="45.97973" lon="3.5166">
        <ele>308</ele>
        <time>2009-12-26T08:01:09Z</time>
      </trkpt>
      <trkpt lat="45.98025" lon="3.51592">
        <ele>308</ele>
        <time>2009-12-26T08:01:09Z</time>
      </trkpt>
      <trkpt lat="45.98063" lon="3.51553">
        <ele>309</ele>
        <time>2009-12-26T08:01:09Z</time>
      </trkpt>
      <trkpt lat="45.98096" lon="3.51507">
        <ele>309</ele>
        <time>2009-12-26T08:01:09Z</time>
      </trkpt>
      <trkpt lat="45.98145" lon="3.51437">
        <ele>308</ele>
        <time>2009-12-26T08:01:09Z</time>
      </trkpt>
      <trkpt lat="45.98203" lon="3.51528">
        <ele>322</ele>
        <time>2009-12-26T08:01:09Z</time>
      </trkpt>
      <trkpt lat="45.98125" lon="3.51644">
        <ele>322</ele>
        <time>2009-12-26T08:01:09Z</time>
      </trkpt>
      <trkpt lat="45.98087" lon="3.51694">
        <ele>321</ele>
        <time>2009-12-26T08:01:09Z</time>
      </trkpt>
      <trkpt lat="45.98085" lon="3.51705">
        <ele>321</ele>
        <time>2009-12-26T08:01:09Z</time>
      </trkpt>
      <trkpt lat="45.98089" lon="3.51718">
        <ele>323</ele>
        <time>2009-12-26T08:01:09Z</time>
      </trkpt>
      <trkpt lat="45.98109" lon="3.51718">
        <ele>325</ele>
        <time>2009-12-26T08:01:09Z</time>
      </trkpt>
      <trkpt lat="45.98131" lon="3.51746">
        <ele>329</ele>
        <time>2009-12-26T08:01:09Z</time>
      </trkpt>
      <trkpt lat="45.98171" lon="3.51792">
        <ele>335</ele>
        <time>2009-12-26T08:01:09Z</time>
      </trkpt>
      <trkpt lat="45.98197" lon="3.51812">
        <ele>341</ele>
        <time>2009-12-26T08:01:09Z</time>
      </trkpt>
      <trkpt lat="45.98207" lon="3.51846">
        <ele>344</ele>
        <time>2009-12-26T08:01:09Z</time>
      </trkpt>
      <trkpt lat="45.98246" lon="3.51918">
        <ele>352</ele>
        <time>2009-12-26T08:01:09Z</time>
      </trkpt>
      <trkpt lat="45.98297" lon="3.51964">
        <ele>362</ele>
        <time>2009-12-26T08:01:09Z</time>
      </trkpt>
      <trkpt lat="45.98328" lon="3.51984">
        <ele>367</ele>
        <time>2009-12-26T08:01:09Z</time>
      </trkpt>
      <trkpt lat="45.98353" lon="3.52011">
        <ele>371</ele>
        <time>2009-12-26T08:01:09Z</time>
      </trkpt>
      <trkpt lat="45.98366" lon="3.52027">
        <ele>375</ele>
        <time>2009-12-26T08:01:09Z</time>
      </trkpt>
      <trkpt lat="45.98376" lon="3.52066">
        <ele>381</ele>
        <time>2009-12-26T08:01:09Z</time>
      </trkpt>
      <trkpt lat="45.98419" lon="3.52043">
        <ele>384</ele>
        <time>2009-12-26T08:01:09Z</time>
      </trkpt>
      <trkpt lat="45.98427" lon="3.52017">
        <ele>385</ele>
        <time>2009-12-26T08:01:09Z</time>
      </trkpt>
      <trkpt lat="45.98423" lon="3.51975">
        <ele>387</ele>
        <time>2009-12-26T08:01:09Z</time>
      </trkpt>
      <trkpt lat="45.98402" lon="3.51933">
        <ele>386</ele>
        <time>2009-12-26T08:01:09Z</time>
      </trkpt>
      <trkpt lat="45.98384" lon="3.51906">
        <ele>385</ele>
        <time>2009-12-26T08:01:09Z</time>
      </trkpt>
      <trkpt lat="45.98378" lon="3.51872">
        <ele>388</ele>
        <time>2009-12-26T08:01:09Z</time>
      </trkpt>
      <trkpt lat="45.98378" lon="3.51834">
        <ele>388</ele>
        <time>2009-12-26T08:01:09Z</time>
      </trkpt>
      <trkpt lat="45.98401" lon="3.51797">
        <ele>390</ele>
        <time>2009-12-26T08:01:09Z</time>
      </trkpt>
      <trkpt lat="45.98454" lon="3.51742">
        <ele>391</ele>
        <time>2009-12-26T08:01:09Z</time>
      </trkpt>
      <trkpt lat="45.98474" lon="3.51723">
        <ele>392</ele>
        <time>2009-12-26T08:01:09Z</time>
      </trkpt>
      <trkpt lat="45.98502" lon="3.51696">
        <ele>393</ele>
        <time>2009-12-26T08:01:09Z</time>
      </trkpt>
      <trkpt lat="45.98574" lon="3.5161">
        <ele>392</ele>
        <time>2009-12-26T08:01:09Z</time>
      </trkpt>
      <trkpt lat="45.98615" lon="3.51576">
        <ele>389</ele>
        <time>2009-12-26T08:01:09Z</time>
      </trkpt>
      <trkpt lat="45.98744" lon="3.51558">
        <ele>388</ele>
        <time>2009-12-26T08:01:09Z</time>
      </trkpt>
      <trkpt lat="45.98818" lon="3.51535">
        <ele>386</ele>
        <time>2009-12-26T08:01:09Z</time>
      </trkpt>
      <trkpt lat="45.9884" lon="3.51502">
        <ele>381</ele>
        <time>2009-12-26T08:01:09Z</time>
      </trkpt>
      <trkpt lat="45.98835" lon="3.5144">
        <ele>377</ele>
        <time>2009-12-26T08:01:09Z</time>
      </trkpt>
      <trkpt lat="45.98824" lon="3.51414">
        <ele>376</ele>
        <time>2009-12-26T08:01:09Z</time>
      </trkpt>
      <trkpt lat="45.9882" lon="3.51364">
        <ele>379</ele>
        <time>2009-12-26T08:01:09Z</time>
      </trkpt>
      <trkpt lat="45.98821" lon="3.51322">
        <ele>381</ele>
        <time>2009-12-26T08:01:09Z</time>
      </trkpt>
      <trkpt lat="45.98842" lon="3.51332">
        <ele>383</ele>
        <time>2009-12-26T08:01:09Z</time>
      </trkpt>
      <trkpt lat="45.98867" lon="3.51344">
        <ele>386</ele>
        <time>2009-12-26T08:01:09Z</time>
      </trkpt>
      <trkpt lat="45.98953" lon="3.5138">
        <ele>394</ele>
        <time>2009-12-26T08:01:09Z</time>
      </trkpt>
      <trkpt lat="45.99018" lon="3.51397">
        <ele>400</ele>
        <time>2009-12-26T08:01:09Z</time>
      </trkpt>
      <trkpt lat="45.9904" lon="3.51462">
        <ele>408</ele>
        <time>2009-12-26T08:01:09Z</time>
      </trkpt>
      <trkpt lat="45.99059" lon="3.51553">
        <ele>416</ele>
        <time>2009-12-26T08:01:09Z</time>
      </trkpt>
      <trkpt lat="45.99068" lon="3.51579">
        <ele>418</ele>
        <time>2009-12-26T08:01:09Z</time>
      </trkpt>
      <trkpt lat="45.99017" lon="3.51589">
        <ele>422</ele>
        <time>2009-12-26T08:01:09Z</time>
      </trkpt>
      <trkpt lat="45.98973" lon="3.51609">
        <ele>424</ele>
        <time>2009-12-26T08:01:09Z</time>
      </trkpt>
      <trkpt lat="45.98964" lon="3.51616">
        <ele>424</ele>
        <time>2009-12-26T08:01:09Z</time>
      </trkpt>
      <trkpt lat="45.98965" lon="3.51627">
        <ele>426</ele>
        <time>2009-12-26T08:01:09Z</time>
      </trkpt>
      <trkpt lat="45.98978" lon="3.51642">
        <ele>430</ele>
        <time>2009-12-26T08:01:09Z</time>
      </trkpt>
      <trkpt lat="45.98996" lon="3.51666">
        <ele>434</ele>
        <time>2009-12-26T08:01:09Z</time>
      </trkpt>
      <trkpt lat="45.99012" lon="3.51675">
        <ele>436</ele>
        <time>2009-12-26T08:01:09Z</time>
      </trkpt>
      <trkpt lat="45.99018" lon="3.51693">
        <ele>438</ele>
        <time>2009-12-26T08:01:09Z</time>
      </trkpt>
      <trkpt lat="45.9902" lon="3.51707">
        <ele>441</ele>
        <time>2009-12-26T08:01:09Z</time>
      </trkpt>
      <trkpt lat="45.99004" lon="3.51708">
        <ele>441</ele>
        <time>2009-12-26T08:01:09Z</time>
      </trkpt>
      <trkpt lat="45.98986" lon="3.5171">
        <ele>441</ele>
        <time>2009-12-26T08:01:09Z</time>
      </trkpt>
      <trkpt lat="45.9898" lon="3.51716">
        <ele>442</ele>
        <time>2009-12-26T08:01:09Z</time>
      </trkpt>
      <trkpt lat="45.98981" lon="3.51726">
        <ele>444</ele>
        <time>2009-12-26T08:01:09Z</time>
      </trkpt>
      <trkpt lat="45.98995" lon="3.51744">
        <ele>446</ele>
        <time>2009-12-26T08:01:09Z</time>
      </trkpt>
      <trkpt lat="45.99023" lon="3.51748">
        <ele>446</ele>
        <time>2009-12-26T08:01:09Z</time>
      </trkpt>
      <trkpt lat="45.99056" lon="3.51764">
        <ele>446</ele>
        <time>2009-12-26T08:01:09Z</time>
      </trkpt>
      <trkpt lat="45.9906" lon="3.51774">
        <ele>447</ele>
        <time>2009-12-26T08:01:09Z</time>
      </trkpt>
      <trkpt lat="45.99059" lon="3.51792">
        <ele>449</ele>
        <time>2009-12-26T08:01:09Z</time>
      </trkpt>
      <trkpt lat="45.99023" lon="3.51799">
        <ele>453</ele>
        <time>2009-12-26T08:01:09Z</time>
      </trkpt>
      <trkpt lat="45.98986" lon="3.51803">
        <ele>454</ele>
        <time>2009-12-26T08:01:09Z</time>
      </trkpt>
      <trkpt lat="45.98964" lon="3.51809">
        <ele>455</ele>
        <time>2009-12-26T08:01:09Z</time>
      </trkpt>
      <trkpt lat="45.98847" lon="3.5195">
        <ele>470</ele>
        <time>2009-12-26T08:01:09Z</time>
      </trkpt>
      <trkpt lat="45.98797" lon="3.52014">
        <ele>474</ele>
        <time>2009-12-26T08:01:09Z</time>
      </trkpt>
      <trkpt lat="45.98789" lon="3.52025">
        <ele>474</ele>
        <time>2009-12-26T08:01:09Z</time>
      </trkpt>
      <trkpt lat="45.98792" lon="3.52046">
        <ele>476</ele>
        <time>2009-12-26T08:01:09Z</time>
      </trkpt>
      <trkpt lat="45.98819" lon="3.52055">
        <ele>481</ele>
        <time>2009-12-26T08:01:09Z</time>
      </trkpt>
      <trkpt lat="45.9888" lon="3.52048">
        <ele>485</ele>
        <time>2009-12-26T08:01:09Z</time>
      </trkpt>
      <trkpt lat="45.98968" lon="3.52072">
        <ele>494</ele>
        <time>2009-12-26T08:01:09Z</time>
      </trkpt>
      <trkpt lat="45.99021" lon="3.5209">
        <ele>499</ele>
        <time>2009-12-26T08:01:09Z</time>
      </trkpt>
      <trkpt lat="45.99086" lon="3.52128">
        <ele>504</ele>
        <time>2009-12-26T08:01:09Z</time>
      </trkpt>
      <trkpt lat="45.99108" lon="3.52138">
        <ele>504</ele>
        <time>2009-12-26T08:01:09Z</time>
      </trkpt>
      <trkpt lat="45.99125" lon="3.5216">
        <ele>507</ele>
        <time>2009-12-26T08:01:09Z</time>
      </trkpt>
      <trkpt lat="45.9912" lon="3.52169">
        <ele>509</ele>
        <time>2009-12-26T08:01:09Z</time>
      </trkpt>
      <trkpt lat="45.99091" lon="3.52167">
        <ele>510</ele>
        <time>2009-12-26T08:01:09Z</time>
      </trkpt>
      <trkpt lat="45.99072" lon="3.52178">
        <ele>512</ele>
        <time>2009-12-26T08:01:09Z</time>
      </trkpt>
      <trkpt lat="45.99079" lon="3.52191">
        <ele>514</ele>
        <time>2009-12-26T08:01:09Z</time>
      </trkpt>
      <trkpt lat="45.99109" lon="3.52201">
        <ele>514</ele>
        <time>2009-12-26T08:01:09Z</time>
      </trkpt>
      <trkpt lat="45.99151" lon="3.52225">
        <ele>516</ele>
        <time>2009-12-26T08:01:09Z</time>
      </trkpt>
      <trkpt lat="45.99226" lon="3.52336">
        <ele>527</ele>
        <time>2009-12-26T08:01:09Z</time>
      </trkpt>
      <trkpt lat="45.99275" lon="3.52418">
        <ele>534</ele>
        <time>2009-12-26T08:01:09Z</time>
      </trkpt>
      <trkpt lat="45.99305" lon="3.52469">
        <ele>532</ele>
        <time>2009-12-26T08:01:09Z</time>
      </trkpt>
      <trkpt lat="45.99298" lon="3.52556">
        <ele>534</ele>
        <time>2009-12-26T08:01:09Z</time>
      </trkpt>
      <trkpt lat="45.99308" lon="3.52586">
        <ele>532</ele>
        <time>2009-12-26T08:01:09Z</time>
      </trkpt>
      <trkpt lat="45.9934" lon="3.52663">
        <ele>527</ele>
        <time>2009-12-26T08:01:09Z</time>
      </trkpt>
      <trkpt lat="45.99388" lon="3.52701">
        <ele>529</ele>
        <time>2009-12-26T08:01:09Z</time>
      </trkpt>
      <trkpt lat="45.99412" lon="3.52723">
        <ele>532</ele>
        <time>2009-12-26T08:01:09Z</time>
      </trkpt>
      <trkpt lat="45.99501" lon="3.52778">
        <ele>538</ele>
        <time>2009-12-26T08:01:09Z</time>
      </trkpt>
      <trkpt lat="45.99562" lon="3.52805">
        <ele>540</ele>
        <time>2009-12-26T08:01:09Z</time>
      </trkpt>
      <trkpt lat="45.99632" lon="3.52826">
        <ele>538</ele>
        <time>2009-12-26T08:01:09Z</time>
      </trkpt>
      <trkpt lat="45.99705" lon="3.52834">
        <ele>538</ele>
        <time>2009-12-26T08:01:09Z</time>
      </trkpt>
      <trkpt lat="45.99736" lon="3.52841">
        <ele>538</ele>
        <time>2009-12-26T08:01:09Z</time>
      </trkpt>
      <trkpt lat="45.99783" lon="3.52882">
        <ele>535</ele>
        <time>2009-12-26T08:01:09Z</time>
      </trkpt>
      <trkpt lat="45.99811" lon="3.52941">
        <ele>533</ele>
        <time>2009-12-26T08:01:09Z</time>
      </trkpt>
      <trkpt lat="45.99843" lon="3.52971">
        <ele>538</ele>
        <time>2009-12-26T08:01:09Z</time>
      </trkpt>
      <trkpt lat="45.99907" lon="3.53001">
        <ele>540</ele>
        <time>2009-12-26T08:01:09Z</time>
      </trkpt>
      <trkpt lat="45.99936" lon="3.52999">
        <ele>535</ele>
        <time>2009-12-26T08:01:09Z</time>
      </trkpt>
      <trkpt lat="45.99963" lon="3.52978">
        <ele>527</ele>
        <time>2009-12-26T08:01:09Z</time>
      </trkpt>
      <trkpt lat="45.99988" lon="3.52959">
        <ele>524</ele>
        <time>2009-12-26T08:01:09Z</time>
      </trkpt>
      <trkpt lat="46.00042" lon="3.52967">
        <ele>529</ele>
        <time>2009-12-26T08:01:09Z</time>
      </trkpt>
      <trkpt lat="46.00082" lon="3.52981">
        <ele>532</ele>
        <time>2009-12-26T08:01:09Z</time>
      </trkpt>
      <trkpt lat="46.00115" lon="3.52994">
        <ele>535</ele>
        <time>2009-12-26T08:01:09Z</time>
      </trkpt>
      <trkpt lat="46.00138" lon="3.53005">
        <ele>537</ele>
        <time>2009-12-26T08:01:09Z</time>
      </trkpt>
      <trkpt lat="46.00137" lon="3.53121">
        <ele>555</ele>
        <time>2009-12-26T08:01:09Z</time>
      </trkpt>
      <trkpt lat="46.00127" lon="3.53214">
        <ele>561</ele>
        <time>2009-12-26T08:01:09Z</time>
      </trkpt>
      <trkpt lat="46.00122" lon="3.53258">
        <ele>549</ele>
        <time>2009-12-26T08:01:09Z</time>
      </trkpt>
      <trkpt lat="46.00156" lon="3.53313">
        <ele>541</ele>
        <time>2009-12-26T08:01:09Z</time>
      </trkpt>
      <trkpt lat="46.00127" lon="3.53332">
        <ele>533</ele>
        <time>2009-12-26T08:01:09Z</time>
      </trkpt>
      <trkpt lat="46.00091" lon="3.53312">
        <ele>529</ele>
        <time>2009-12-26T08:01:09Z</time>
      </trkpt>
      <trkpt lat="46.00075" lon="3.53312">
        <ele>529</ele>
        <time>2009-12-26T08:01:09Z</time>
      </trkpt>
      <trkpt lat="46.00053" lon="3.53343">
        <ele>519</ele>
        <time>2009-12-26T08:01:09Z</time>
      </trkpt>
      <trkpt lat="46.00034" lon="3.53401">
        <ele>507</ele>
        <time>2009-12-26T08:01:09Z</time>
      </trkpt>
      <trkpt lat="46.00048" lon="3.53438">
        <ele>496</ele>
        <time>2009-12-26T08:01:09Z</time>
      </trkpt>
      <trkpt lat="46.00097" lon="3.53536">
        <ele>477</ele>
        <time>2009-12-26T08:01:09Z</time>
      </trkpt>
      <trkpt lat="46.00116" lon="3.53588">
        <ele>462</ele>
        <time>2009-12-26T08:01:09Z</time>
      </trkpt>
      <trkpt lat="46.0011" lon="3.53643">
        <ele>458</ele>
        <time>2009-12-26T08:01:09Z</time>
      </trkpt>
      <trkpt lat="46.00174" lon="3.53687">
        <ele>472</ele>
        <time>2009-12-26T08:01:09Z</time>
      </trkpt>
      <trkpt lat="46.0017" lon="3.53717">
        <ele>480</ele>
        <time>2009-12-26T08:01:09Z</time>
      </trkpt>
      <trkpt lat="46.00086" lon="3.53727">
        <ele>479</ele>
        <time>2009-12-26T08:01:09Z</time>
      </trkpt>
      <trkpt lat="46.00056" lon="3.53858">
        <ele>500</ele>
        <time>2009-12-26T08:01:09Z</time>
      </trkpt>
      <trkpt lat="46.00009" lon="3.53872">
        <ele>493</ele>
        <time>2009-12-26T08:01:09Z</time>
      </trkpt>
      <trkpt lat="45.9996" lon="3.5393">
        <ele>496</ele>
        <time>2009-12-26T08:01:09Z</time>
      </trkpt>
      <trkpt lat="45.9988" lon="3.54042">
        <ele>509</ele>
        <time>2009-12-26T08:01:09Z</time>
      </trkpt>
      <trkpt lat="45.99988" lon="3.54023">
        <ele>520</ele>
        <time>2009-12-26T08:01:09Z</time>
      </trkpt>
      <trkpt lat="46.00047" lon="3.53987">
        <ele>524</ele>
        <time>2009-12-26T08:01:09Z</time>
      </trkpt>
      <trkpt lat="46.00098" lon="3.53982">
        <ele>530</ele>
        <time>2009-12-26T08:01:09Z</time>
      </trkpt>
      <trkpt lat="46.00164" lon="3.5394">
        <ele>531</ele>
        <time>2009-12-26T08:01:09Z</time>
      </trkpt>
      <trkpt lat="46.00315" lon="3.54041">
        <ele>537</ele>
        <time>2009-12-26T08:01:09Z</time>
      </trkpt>
      <trkpt lat="46.00362" lon="3.54084">
        <ele>539</ele>
        <time>2009-12-26T08:01:09Z</time>
      </trkpt>
      <trkpt lat="46.00415" lon="3.54139">
        <ele>544</ele>
        <time>2009-12-26T08:01:09Z</time>
      </trkpt>
      <trkpt lat="46.0048" lon="3.54192">
        <ele>546</ele>
        <time>2009-12-26T08:01:09Z</time>
      </trkpt>
      <trkpt lat="46.00472" lon="3.54276">
        <ele>542</ele>
        <time>2009-12-26T08:01:09Z</time>
      </trkpt>
      <trkpt lat="46.00497" lon="3.54413">
        <ele>543</ele>
        <time>2009-12-26T08:01:09Z</time>
      </trkpt>
      <trkpt lat="46.00459" lon="3.54421">
        <ele>539</ele>
        <time>2009-12-26T08:01:09Z</time>
      </trkpt>
      <trkpt lat="46.00429" lon="3.54368">
        <ele>534</ele>
        <time>2009-12-26T08:01:09Z</time>
      </trkpt>
      <trkpt lat="46.00411" lon="3.54331">
        <ele>532</ele>
        <time>2009-12-26T08:01:09Z</time>
      </trkpt>
      <trkpt lat="46.00368" lon="3.54325">
        <ele>527</ele>
        <time>2009-12-26T08:01:09Z</time>
      </trkpt>
      <trkpt lat="46.00293" lon="3.54314">
        <ele>526</ele>
        <time>2009-12-26T08:01:09Z</time>
      </trkpt>
      <trkpt lat="46.00245" lon="3.54297">
        <ele>528</ele>
        <time>2009-12-26T08:01:09Z</time>
      </trkpt>
      <trkpt lat="46.00211" lon="3.54291">
        <ele>527</ele>
        <time>2009-12-26T08:01:09Z</time>
      </trkpt>
      <trkpt lat="46.00186" lon="3.54294">
        <ele>526</ele>
        <time>2009-12-26T08:01:09Z</time>
      </trkpt>
      <trkpt lat="46.00107" lon="3.54321">
        <ele>518</ele>
        <time>2009-12-26T08:01:09Z</time>
      </trkpt>
      <trkpt lat="46.00038" lon="3.54369">
        <ele>518</ele>
        <time>2009-12-26T08:01:09Z</time>
      </trkpt>
      <trkpt lat="45.99993" lon="3.54401">
        <ele>517</ele>
        <time>2009-12-26T08:01:09Z</time>
      </trkpt>
      <trkpt lat="45.99952" lon="3.54429">
        <ele>515</ele>
        <time>2009-12-26T08:01:09Z</time>
      </trkpt>
      <trkpt lat="45.9992" lon="3.54428">
        <ele>515</ele>
        <time>2009-12-26T08:01:09Z</time>
      </trkpt>
      <trkpt lat="45.9986" lon="3.54525">
        <ele>496</ele>
        <time>2009-12-26T08:01:09Z</time>
      </trkpt>
      <trkpt lat="45.99863" lon="3.54574">
        <ele>488</ele>
        <time>2009-12-26T08:01:09Z</time>
      </trkpt>
      <trkpt lat="45.99875" lon="3.54618">
        <ele>483</ele>
        <time>2009-12-26T08:01:09Z</time>
      </trkpt>
      <trkpt lat="45.99853" lon="3.54693">
        <ele>480</ele>
        <time>2009-12-26T08:01:09Z</time>
      </trkpt>
      <trkpt lat="45.99828" lon="3.54762">
        <ele>474</ele>
        <time>2009-12-26T08:01:09Z</time>
      </trkpt>
      <trkpt lat="45.99799" lon="3.54827">
        <ele>461</ele>
        <time>2009-12-26T08:01:09Z</time>
      </trkpt>
      <trkpt lat="45.99785" lon="3.54901">
        <ele>447</ele>
        <time>2009-12-26T08:01:09Z</time>
      </trkpt>
      <trkpt lat="45.99783" lon="3.54956">
        <ele>445</ele>
        <time>2009-12-26T08:01:09Z</time>
      </trkpt>
      <trkpt lat="45.99881" lon="3.5497">
        <ele>463</ele>
        <time>2009-12-26T08:01:09Z</time>
      </trkpt>
      <trkpt lat="45.99937" lon="3.5494">
        <ele>469</ele>
        <time>2009-12-26T08:01:09Z</time>
      </trkpt>
      <trkpt lat="45.9998" lon="3.54909">
        <ele>476</ele>
        <time>2009-12-26T08:01:09Z</time>
      </trkpt>
      <trkpt lat="46.00082" lon="3.54901">
        <ele>476</ele>
        <time>2009-12-26T08:01:09Z</time>
      </trkpt>
      <trkpt lat="46.00155" lon="3.54916">
        <ele>483</ele>
        <time>2009-12-26T08:01:09Z</time>
      </trkpt>
      <trkpt lat="46.00203" lon="3.5493">
        <ele>487</ele>
        <time>2009-12-26T08:01:09Z</time>
      </trkpt>
      <trkpt lat="46.00297" lon="3.54985">
        <ele>495</ele>
        <time>2009-12-26T08:01:09Z</time>
      </trkpt>
      <trkpt lat="46.0038" lon="3.54995">
        <ele>500</ele>
        <time>2009-12-26T08:01:09Z</time>
      </trkpt>
      <trkpt lat="46.00451" lon="3.54976">
        <ele>496</ele>
        <time>2009-12-26T08:01:09Z</time>
      </trkpt>
      <trkpt lat="46.00511" lon="3.54977">
        <ele>499</ele>
        <time>2009-12-26T08:01:09Z</time>
      </trkpt>
      <trkpt lat="46.00586" lon="3.54985">
        <ele>503</ele>
        <time>2009-12-26T08:01:09Z</time>
      </trkpt>
      <trkpt lat="46.00656" lon="3.54988">
        <ele>496</ele>
        <time>2009-12-26T08:01:09Z</time>
      </trkpt>
      <trkpt lat="46.00717" lon="3.55082">
        <ele>504</ele>
        <time>2009-12-26T08:01:09Z</time>
      </trkpt>
      <trkpt lat="46.00748" lon="3.55116">
        <ele>507</ele>
        <time>2009-12-26T08:01:09Z</time>
      </trkpt>
      <trkpt lat="46.00772" lon="3.55133">
        <ele>506</ele>
        <time>2009-12-26T08:01:09Z</time>
      </trkpt>
      <trkpt lat="46.0082" lon="3.55166">
        <ele>503</ele>
        <time>2009-12-26T08:01:09Z</time>
      </trkpt>
      <trkpt lat="46.00836" lon="3.55217">
        <ele>506</ele>
        <time>2009-12-26T08:01:09Z</time>
      </trkpt>
      <trkpt lat="46.00841" lon="3.55281">
        <ele>511</ele>
        <time>2009-12-26T08:01:09Z</time>
      </trkpt>
      <trkpt lat="46.00847" lon="3.55343">
        <ele>518</ele>
        <time>2009-12-26T08:01:09Z</time>
      </trkpt>
      <trkpt lat="46.00814" lon="3.5536">
        <ele>523</ele>
        <time>2009-12-26T08:01:09Z</time>
      </trkpt>
      <trkpt lat="46.00662" lon="3.55357">
        <ele>538</ele>
        <time>2009-12-26T08:01:09Z</time>
      </trkpt>
      <trkpt lat="46.00632" lon="3.55356">
        <ele>543</ele>
        <time>2009-12-26T08:01:09Z</time>
      </trkpt>
      <trkpt lat="46.00609" lon="3.5537">
        <ele>543</ele>
        <time>2009-12-26T08:01:09Z</time>
      </trkpt>
      <trkpt lat="46.00593" lon="3.55408">
        <ele>539</ele>
        <time>2009-12-26T08:01:09Z</time>
      </trkpt>
      <trkpt lat="46.00587" lon="3.55432">
        <ele>539</ele>
        <time>2009-12-26T08:01:09Z</time>
      </trkpt>
      <trkpt lat="46.00574" lon="3.55447">
        <ele>539</ele>
        <time>2009-12-26T08:01:09Z</time>
      </trkpt>
      <trkpt lat="46.0048" lon="3.5537">
        <ele>529</ele>
        <time>2009-12-26T08:01:09Z</time>
      </trkpt>
      <trkpt lat="46.00442" lon="3.5535">
        <ele>525</ele>
        <time>2009-12-26T08:01:09Z</time>
      </trkpt>
      <trkpt lat="46.00373" lon="3.55339">
        <ele>521</ele>
        <time>2009-12-26T08:01:09Z</time>
      </trkpt>
      <trkpt lat="46.00302" lon="3.55332">
        <ele>515</ele>
        <time>2009-12-26T08:01:09Z</time>
      </trkpt>
      <trkpt lat="46.00259" lon="3.55328">
        <ele>511</ele>
        <time>2009-12-26T08:01:09Z</time>
      </trkpt>
      <trkpt lat="46.00202" lon="3.55312">
        <ele>506</ele>
        <time>2009-12-26T08:01:09Z</time>
      </trkpt>
      <trkpt lat="46.00138" lon="3.553">
        <ele>500</ele>
        <time>2009-12-26T08:01:09Z</time>
      </trkpt>
      <trkpt lat="46.0009" lon="3.553">
        <ele>493</ele>
        <time>2009-12-26T08:01:09Z</time>
      </trkpt>
      <trkpt lat="46.00021" lon="3.5535">
        <ele>489</ele>
        <time>2009-12-26T08:01:09Z</time>
      </trkpt>
      <trkpt lat="45.99987" lon="3.55398">
        <ele>484</ele>
        <time>2009-12-26T08:01:09Z</time>
      </trkpt>
      <trkpt lat="45.99987" lon="3.55479">
        <ele>485</ele>
        <time>2009-12-26T08:01:09Z</time>
      </trkpt>
      <trkpt lat="46.00009" lon="3.55532">
        <ele>488</ele>
        <time>2009-12-26T08:01:09Z</time>
      </trkpt>
      <trkpt lat="45.99997" lon="3.55592">
        <ele>491</ele>
        <time>2009-12-26T08:01:09Z</time>
      </trkpt>
      <trkpt lat="45.99982" lon="3.55627">
        <ele>489</ele>
        <time>2009-12-26T08:01:09Z</time>
      </trkpt>
      <trkpt lat="45.99981" lon="3.55674">
        <ele>491</ele>
        <time>2009-12-26T08:01:09Z</time>
      </trkpt>
      <trkpt lat="46.00019" lon="3.55744">
        <ele>497</ele>
        <time>2009-12-26T08:01:09Z</time>
      </trkpt>
      <trkpt lat="46.00061" lon="3.55798">
        <ele>500</ele>
        <time>2009-12-26T08:01:09Z</time>
      </trkpt>
      <trkpt lat="46.0001" lon="3.55807">
        <ele>505</ele>
        <time>2009-12-26T08:01:09Z</time>
      </trkpt>
      <trkpt lat="45.99968" lon="3.55882">
        <ele>516</ele>
        <time>2009-12-26T08:01:09Z</time>
      </trkpt>
      <trkpt lat="45.99937" lon="3.55962">
        <ele>524</ele>
        <time>2009-12-26T08:01:09Z</time>
      </trkpt>
      <trkpt lat="45.99922" lon="3.5599">
        <ele>527</ele>
        <time>2009-12-26T08:01:09Z</time>
      </trkpt>
      <trkpt lat="45.99789" lon="3.56075">
        <ele>531</ele>
        <time>2009-12-26T08:01:09Z</time>
      </trkpt>
      <trkpt lat="45.99756" lon="3.55971">
        <ele>527</ele>
        <time>2009-12-26T08:01:09Z</time>
      </trkpt>
      <trkpt lat="45.99741" lon="3.55899">
        <ele>528</ele>
        <time>2009-12-26T08:01:09Z</time>
      </trkpt>
      <trkpt lat="45.99699" lon="3.55822">
        <ele>529</ele>
        <time>2009-12-26T08:01:09Z</time>
      </trkpt>
      <trkpt lat="45.99673" lon="3.55777">
        <ele>528</ele>
        <time>2009-12-26T08:01:09Z</time>
      </trkpt>
      <trkpt lat="45.99665" lon="3.55736">
        <ele>529</ele>
        <time>2009-12-26T08:01:09Z</time>
      </trkpt>
      <trkpt lat="45.99637" lon="3.55666">
        <ele>531</ele>
        <time>2009-12-26T08:01:09Z</time>
      </trkpt>
      <trkpt lat="45.99612" lon="3.5563">
        <ele>533</ele>
        <time>2009-12-26T08:01:09Z</time>
      </trkpt>
      <trkpt lat="45.99595" lon="3.55628">
        <ele>532</ele>
        <time>2009-12-26T08:01:09Z</time>
      </trkpt>
      <trkpt lat="45.99568" lon="3.55647">
        <ele>525</ele>
        <time>2009-12-26T08:01:09Z</time>
      </trkpt>
      <trkpt lat="45.99538" lon="3.5564">
        <ele>523</ele>
        <time>2009-12-26T08:01:09Z</time>
      </trkpt>
      <trkpt lat="45.99498" lon="3.55623">
        <ele>521</ele>
        <time>2009-12-26T08:01:09Z</time>
      </trkpt>
      <trkpt lat="45.99474" lon="3.55672">
        <ele>512</ele>
        <time>2009-12-26T08:01:09Z</time>
      </trkpt>
      <trkpt lat="45.99439" lon="3.5573">
        <ele>501</ele>
        <time>2009-12-26T08:01:09Z</time>
      </trkpt>
      <trkpt lat="45.99388" lon="3.55759">
        <ele>493</ele>
        <time>2009-12-26T08:01:09Z</time>
      </trkpt>
      <trkpt lat="45.99329" lon="3.55758">
        <ele>488</ele>
        <time>2009-12-26T08:01:09Z</time>
      </trkpt>
      <trkpt lat="45.99287" lon="3.55755">
        <ele>486</ele>
        <time>2009-12-26T08:01:09Z</time>
      </trkpt>
      <trkpt lat="45.99224" lon="3.55707">
        <ele>480</ele>
        <time>2009-12-26T08:01:09Z</time>
      </trkpt>
      <trkpt lat="45.99195" lon="3.55685">
        <ele>474</ele>
        <time>2009-12-26T08:01:09Z</time>
      </trkpt>
      <trkpt lat="45.9916" lon="3.55681">
        <ele>467</ele>
        <time>2009-12-26T08:01:09Z</time>
      </trkpt>
      <trkpt lat="45.99125" lon="3.55715">
        <ele>460</ele>
        <time>2009-12-26T08:01:09Z</time>
      </trkpt>
      <trkpt lat="45.99087" lon="3.55765">
        <ele>455</ele>
        <time>2009-12-26T08:01:09Z</time>
      </trkpt>
      <trkpt lat="45.99071" lon="3.55813">
        <ele>471</ele>
        <time>2009-12-26T08:01:09Z</time>
      </trkpt>
      <trkpt lat="45.99114" lon="3.55895">
        <ele>491</ele>
        <time>2009-12-26T08:01:09Z</time>
      </trkpt>
      <trkpt lat="45.99168" lon="3.55982">
        <ele>492</ele>
        <time>2009-12-26T08:01:09Z</time>
      </trkpt>
      <trkpt lat="45.99191" lon="3.56052">
        <ele>497</ele>
        <time>2009-12-26T08:01:09Z</time>
      </trkpt>
      <trkpt lat="45.99254" lon="3.56132">
        <ele>503</ele>
        <time>2009-12-26T08:01:09Z</time>
      </trkpt>
      <trkpt lat="45.99291" lon="3.56183">
        <ele>504</ele>
        <time>2009-12-26T08:01:09Z</time>
      </trkpt>
      <trkpt lat="45.99238" lon="3.56225">
        <ele>494</ele>
        <time>2009-12-26T08:01:09Z</time>
      </trkpt>
      <trkpt lat="45.99158" lon="3.56253">
        <ele>481</ele>
        <time>2009-12-26T08:01:09Z</time>
      </trkpt>
      <trkpt lat="45.99079" lon="3.56244">
        <ele>477</ele>
        <time>2009-12-26T08:01:09Z</time>
      </trkpt>
      <trkpt lat="45.99018" lon="3.56241">
        <ele>471</ele>
        <time>2009-12-26T08:01:09Z</time>
      </trkpt>
      <trkpt lat="45.98989" lon="3.56234">
        <ele>467</ele>
        <time>2009-12-26T08:01:09Z</time>
      </trkpt>
      <trkpt lat="45.98968" lon="3.56203">
        <ele>462</ele>
        <time>2009-12-26T08:01:09Z</time>
      </trkpt>
      <trkpt lat="45.98956" lon="3.56195">
        <ele>458</ele>
        <time>2009-12-26T08:01:09Z</time>
      </trkpt>
      <trkpt lat="45.98943" lon="3.56203">
        <ele>456</ele>
        <time>2009-12-26T08:01:09Z</time>
      </trkpt>
      <trkpt lat="45.98933" lon="3.56246">
        <ele>458</ele>
        <time>2009-12-26T08:01:09Z</time>
      </trkpt>
      <trkpt lat="45.98927" lon="3.56315">
        <ele>459</ele>
        <time>2009-12-26T08:01:09Z</time>
      </trkpt>
      <trkpt lat="45.98925" lon="3.56351">
        <ele>460</ele>
        <time>2009-12-26T08:01:09Z</time>
      </trkpt>
      <trkpt lat="45.9889" lon="3.56276">
        <ele>466</ele>
        <time>2009-12-26T08:01:09Z</time>
      </trkpt>
      <trkpt lat="45.98852" lon="3.56207">
        <ele>474</ele>
        <time>2009-12-26T08:01:09Z</time>
      </trkpt>
      <trkpt lat="45.98821" lon="3.56181">
        <ele>487</ele>
        <time>2009-12-26T08:01:09Z</time>
      </trkpt>
      <trkpt lat="45.98803" lon="3.56162">
        <ele>493</ele>
        <time>2009-12-26T08:01:09Z</time>
      </trkpt>
      <trkpt lat="45.98763" lon="3.56157">
        <ele>505</ele>
        <time>2009-12-26T08:01:09Z</time>
      </trkpt>
      <trkpt lat="45.98698" lon="3.56144">
        <ele>506</ele>
        <time>2009-12-26T08:01:09Z</time>
      </trkpt>
      <trkpt lat="45.98668" lon="3.56256">
        <ele>522</ele>
        <time>2009-12-26T08:01:09Z</time>
      </trkpt>
      <trkpt lat="45.98637" lon="3.56335">
        <ele>527</ele>
        <time>2009-12-26T08:01:09Z</time>
      </trkpt>
      <trkpt lat="45.98592" lon="3.56377">
        <ele>528</ele>
        <time>2009-12-26T08:01:09Z</time>
      </trkpt>
      <trkpt lat="45.98533" lon="3.56408">
        <ele>534</ele>
        <time>2009-12-26T08:01:09Z</time>
      </trkpt>
      <trkpt lat="45.98475" lon="3.56441">
        <ele>539</ele>
        <time>2009-12-26T08:01:09Z</time>
      </trkpt>
      <trkpt lat="45.9843" lon="3.56501">
        <ele>544</ele>
        <time>2009-12-26T08:01:09Z</time>
      </trkpt>
      <trkpt lat="45.98411" lon="3.56559">
        <ele>548</ele>
        <time>2009-12-26T08:01:09Z</time>
      </trkpt>
      <trkpt lat="45.98394" lon="3.56621">
        <ele>548</ele>
        <time>2009-12-26T08:01:09Z</time>
      </trkpt>
      <trkpt lat="45.98382" lon="3.56674">
        <ele>545</ele>
        <time>2009-12-26T08:01:09Z</time>
      </trkpt>
      <trkpt lat="45.98362" lon="3.56708">
        <ele>543</ele>
        <time>2009-12-26T08:01:09Z</time>
      </trkpt>
      <trkpt lat="45.98346" lon="3.5672">
        <ele>542</ele>
        <time>2009-12-26T08:01:09Z</time>
      </trkpt>
      <trkpt lat="45.98278" lon="3.56701">
        <ele>537</ele>
        <time>2009-12-26T08:01:09Z</time>
      </trkpt>
      <trkpt lat="45.98257" lon="3.56691">
        <ele>535</ele>
        <time>2009-12-26T08:01:09Z</time>
      </trkpt>
      <trkpt lat="45.98231" lon="3.5673">
        <ele>530</ele>
        <time>2009-12-26T08:01:09Z</time>
      </trkpt>
      <trkpt lat="45.98162" lon="3.56718">
        <ele>524</ele>
        <time>2009-12-26T08:01:09Z</time>
      </trkpt>
      <trkpt lat="45.98091" lon="3.56706">
        <ele>510</ele>
        <time>2009-12-26T08:01:09Z</time>
      </trkpt>
      <trkpt lat="45.98068" lon="3.56728">
        <ele>503</ele>
        <time>2009-12-26T08:01:09Z</time>
      </trkpt>
      <trkpt lat="45.98049" lon="3.56763">
        <ele>499</ele>
        <time>2009-12-26T08:01:09Z</time>
      </trkpt>
      <trkpt lat="45.98034" lon="3.5682">
        <ele>499</ele>
        <time>2009-12-26T08:01:09Z</time>
      </trkpt>
      <trkpt lat="45.98042" lon="3.56894">
        <ele>501</ele>
        <time>2009-12-26T08:01:09Z</time>
      </trkpt>
      <trkpt lat="45.98044" lon="3.5696">
        <ele>503</ele>
        <time>2009-12-26T08:01:09Z</time>
      </trkpt>
      <trkpt lat="45.98046" lon="3.57005">
        <ele>506</ele>
        <time>2009-12-26T08:01:09Z</time>
      </trkpt>
      <trkpt lat="45.9799" lon="3.5702">
        <ele>507</ele>
        <time>2009-12-26T08:01:09Z</time>
      </trkpt>
      <trkpt lat="45.97942" lon="3.57029">
        <ele>506</ele>
        <time>2009-12-26T08:01:09Z</time>
      </trkpt>
      <trkpt lat="45.97905" lon="3.57022">
        <ele>509</ele>
        <time>2009-12-26T08:01:09Z</time>
      </trkpt>
      <trkpt lat="45.97858" lon="3.57083">
        <ele>511</ele>
        <time>2009-12-26T08:01:09Z</time>
      </trkpt>
      <trkpt lat="45.97809" lon="3.57158">
        <ele>522</ele>
        <time>2009-12-26T08:01:09Z</time>
      </trkpt>
      <trkpt lat="45.97767" lon="3.57214">
        <ele>531</ele>
        <time>2009-12-26T08:01:09Z</time>
      </trkpt>
      <trkpt lat="45.97722" lon="3.57238">
        <ele>539</ele>
        <time>2009-12-26T08:01:09Z</time>
      </trkpt>
      <trkpt lat="45.97672" lon="3.57247">
        <ele>545</ele>
        <time>2009-12-26T08:01:09Z</time>
      </trkpt>
      <trkpt lat="45.97621" lon="3.57259">
        <ele>553</ele>
        <time>2009-12-26T08:01:09Z</time>
      </trkpt>
      <trkpt lat="45.97582" lon="3.57284">
        <ele>559</ele>
        <time>2009-12-26T08:01:09Z</time>
      </trkpt>
      <trkpt lat="45.97531" lon="3.57312">
        <ele>564</ele>
        <time>2009-12-26T08:01:09Z</time>
      </trkpt>
      <trkpt lat="45.97518" lon="3.57245">
        <ele>565</ele>
        <time>2009-12-26T08:01:09Z</time>
      </trkpt>
      <trkpt lat="45.97475" lon="3.57155">
        <ele>566</ele>
        <time>2009-12-26T08:01:09Z</time>
      </trkpt>
      <trkpt lat="45.97435" lon="3.57117">
        <ele>562</ele>
        <time>2009-12-26T08:01:09Z</time>
      </trkpt>
      <trkpt lat="45.97399" lon="3.57104">
        <ele>558</ele>
        <time>2009-12-26T08:01:09Z</time>
      </trkpt>
      <trkpt lat="45.97334" lon="3.57093">
        <ele>551</ele>
        <time>2009-12-26T08:01:09Z</time>
      </trkpt>
      <trkpt lat="45.97299" lon="3.57082">
        <ele>549</ele>
        <time>2009-12-26T08:01:09Z</time>
      </trkpt>
      <trkpt lat="45.97282" lon="3.56996">
        <ele>549</ele>
        <time>2009-12-26T08:01:09Z</time>
      </trkpt>
      <trkpt lat="45.97263" lon="3.56951">
        <ele>556</ele>
        <time>2009-12-26T08:01:09Z</time>
      </trkpt>
      <trkpt lat="45.97251" lon="3.56894">
        <ele>559</ele>
        <time>2009-12-26T08:01:09Z</time>
      </trkpt>
      <trkpt lat="45.97256" lon="3.56839">
        <ele>565</ele>
        <time>2009-12-26T08:01:09Z</time>
      </trkpt>
      <trkpt lat="45.97246" lon="3.56815">
        <ele>567</ele>
        <time>2009-12-26T08:01:09Z</time>
      </trkpt>
      <trkpt lat="45.97234" lon="3.56764">
        <ele>574</ele>
        <time>2009-12-26T08:01:09Z</time>
      </trkpt>
      <trkpt lat="45.97211" lon="3.56722">
        <ele>580</ele>
        <time>2009-12-26T08:01:09Z</time>
      </trkpt>
      <trkpt lat="45.97215" lon="3.56635">
        <ele>587</ele>
        <time>2009-12-26T08:01:09Z</time>
      </trkpt>
      <trkpt lat="45.97216" lon="3.56574">
        <ele>587</ele>
        <time>2009-12-26T08:01:09Z</time>
      </trkpt>
      <trkpt lat="45.97221" lon="3.56534">
        <ele>588</ele>
        <time>2009-12-26T08:01:09Z</time>
      </trkpt>
      <trkpt lat="45.97251" lon="3.56492">
        <ele>583</ele>
        <time>2009-12-26T08:01:09Z</time>
      </trkpt>
      <trkpt lat="45.97282" lon="3.56425">
        <ele>586</ele>
        <time>2009-12-26T08:01:09Z</time>
      </trkpt>
      <trkpt lat="45.97301" lon="3.56392">
        <ele>585</ele>
        <time>2009-12-26T08:01:09Z</time>
      </trkpt>
      <trkpt lat="45.97312" lon="3.56334">
        <ele>586</ele>
        <time>2009-12-26T08:01:09Z</time>
      </trkpt>
      <trkpt lat="45.97317" lon="3.5629">
        <ele>586</ele>
        <time>2009-12-26T08:01:09Z</time>
      </trkpt>
      <trkpt lat="45.9732" lon="3.56253">
        <ele>587</ele>
        <time>2009-12-26T08:01:09Z</time>
      </trkpt>
      <trkpt lat="45.9732" lon="3.56202">
        <ele>588</ele>
        <time>2009-12-26T08:01:09Z</time>
      </trkpt>
      <trkpt lat="45.97288" lon="3.56267">
        <ele>591</ele>
        <time>2009-12-26T08:01:09Z</time>
      </trkpt>
      <trkpt lat="45.97254" lon="3.56328">
        <ele>597</ele>
        <time>2009-12-26T08:01:09Z</time>
      </trkpt>
      <trkpt lat="45.972" lon="3.56422">
        <ele>605</ele>
        <time>2009-12-26T08:01:09Z</time>
      </trkpt>
      <trkpt lat="45.97159" lon="3.56471">
        <ele>610</ele>
        <time>2009-12-26T08:01:09Z</time>
      </trkpt>
      <trkpt lat="45.97137" lon="3.56499">
        <ele>613</ele>
        <time>2009-12-26T08:01:09Z</time>
      </trkpt>
      <trkpt lat="45.97112" lon="3.56536">
        <ele>613</ele>
        <time>2009-12-26T08:01:09Z</time>
      </trkpt>
      <trkpt lat="45.97069" lon="3.56585">
        <ele>615</ele>
        <time>2009-12-26T08:01:09Z</time>
      </trkpt>
      <trkpt lat="45.97018" lon="3.56602">
        <ele>612</ele>
        <time>2009-12-26T08:01:09Z</time>
      </trkpt>
      <trkpt lat="45.96989" lon="3.56633">
        <ele>608</ele>
        <time>2009-12-26T08:01:09Z</time>
      </trkpt>
      <trkpt lat="45.9697" lon="3.56649">
        <ele>606</ele>
        <time>2009-12-26T08:01:09Z</time>
      </trkpt>
      <trkpt lat="45.96933" lon="3.5665">
        <ele>605</ele>
        <time>2009-12-26T08:01:09Z</time>
      </trkpt>
      <trkpt lat="45.96919" lon="3.56648">
        <ele>604</ele>
        <time>2009-12-26T08:01:09Z</time>
      </trkpt>
      <trkpt lat="45.96912" lon="3.56596">
        <ele>606</ele>
        <time>2009-12-26T08:01:09Z</time>
      </trkpt>
      <trkpt lat="45.96891" lon="3.56566">
        <ele>608</ele>
        <time>2009-12-26T08:01:09Z</time>
      </trkpt>
      <trkpt lat="45.96858" lon="3.5655">
        <ele>608</ele>
        <time>2009-12-26T08:01:09Z</time>
      </trkpt>
      <trkpt lat="45.96821" lon="3.5652">
        <ele>609</ele>
        <time>2009-12-26T08:01:09Z</time>
      </trkpt>
      <trkpt lat="45.96792" lon="3.56501">
        <ele>606</ele>
        <time>2009-12-26T08:01:09Z</time>
      </trkpt>
      <trkpt lat="45.96785" lon="3.56471">
        <ele>607</ele>
        <time>2009-12-26T08:01:09Z</time>
      </trkpt>
      <trkpt lat="45.96779" lon="3.56424">
        <ele>609</ele>
        <time>2009-12-26T08:01:09Z</time>
      </trkpt>
      <trkpt lat="45.96775" lon="3.56396">
        <ele>610</ele>
        <time>2009-12-26T08:01:09Z</time>
      </trkpt>
      <trkpt lat="45.96766" lon="3.56359">
        <ele>611</ele>
        <time>2009-12-26T08:01:09Z</time>
      </trkpt>
      <trkpt lat="45.9675" lon="3.56323">
        <ele>612</ele>
        <time>2009-12-26T08:01:09Z</time>
      </trkpt>
      <trkpt lat="45.96733" lon="3.56306">
        <ele>613</ele>
        <time>2009-12-26T08:01:09Z</time>
      </trkpt>
      <trkpt lat="45.96704" lon="3.56311">
        <ele>614</ele>
        <time>2009-12-26T08:01:09Z</time>
      </trkpt>
      <trkpt lat="45.96686" lon="3.56322">
        <ele>614</ele>
        <time>2009-12-26T08:01:09Z</time>
      </trkpt>
      <trkpt lat="45.96654" lon="3.56326">
        <ele>616</ele>
        <time>2009-12-26T08:01:09Z</time>
      </trkpt>
      <trkpt lat="45.9661" lon="3.56344">
        <ele>617</ele>
        <time>2009-12-26T08:01:09Z</time>
      </trkpt>
      <trkpt lat="45.96573" lon="3.56351">
        <ele>617</ele>
        <time>2009-12-26T08:01:09Z</time>
      </trkpt>
      <trkpt lat="45.96555" lon="3.56351">
        <ele>617</ele>
        <time>2009-12-26T08:01:09Z</time>
      </trkpt>
      <trkpt lat="45.96532" lon="3.5635">
        <ele>613</ele>
        <time>2009-12-26T08:01:09Z</time>
      </trkpt>
      <trkpt lat="45.96523" lon="3.56318">
        <ele>613</ele>
        <time>2009-12-26T08:01:09Z</time>
      </trkpt>
      <trkpt lat="45.96538" lon="3.56221">
        <ele>616</ele>
        <time>2009-12-26T08:01:09Z</time>
      </trkpt>
      <trkpt lat="45.96545" lon="3.5616">
        <ele>619</ele>
        <time>2009-12-26T08:01:09Z</time>
      </trkpt>
      <trkpt lat="45.96537" lon="3.56105">
        <ele>621</ele>
        <time>2009-12-26T08:01:09Z</time>
      </trkpt>
      <trkpt lat="45.96508" lon="3.56084">
        <ele>619</ele>
        <time>2009-12-26T08:01:09Z</time>
      </trkpt>
      <trkpt lat="45.96437" lon="3.56056">
        <ele>620</ele>
        <time>2009-12-26T08:01:09Z</time>
      </trkpt>
      <trkpt lat="45.96373" lon="3.56034">
        <ele>620</ele>
        <time>2009-12-26T08:01:09Z</time>
      </trkpt>
      <trkpt lat="45.96353" lon="3.56021">
        <ele>619</ele>
        <time>2009-12-26T08:01:09Z</time>
      </trkpt>
      <trkpt lat="45.96307" lon="3.55979">
        <ele>616</ele>
        <time>2009-12-26T08:01:09Z</time>
      </trkpt>
      <trkpt lat="45.96258" lon="3.55967">
        <ele>616</ele>
        <time>2009-12-26T08:01:09Z</time>
      </trkpt>
      <trkpt lat="45.96213" lon="3.55956">
        <ele>614</ele>
        <time>2009-12-26T08:01:09Z</time>
      </trkpt>
      <trkpt lat="45.96196" lon="3.55954">
        <ele>614</ele>
        <time>2009-12-26T08:01:09Z</time>
      </trkpt>
      <trkpt lat="45.9613" lon="3.55937">
        <ele>609</ele>
        <time>2009-12-26T08:01:09Z</time>
      </trkpt>
      <trkpt lat="45.96083" lon="3.55903">
        <ele>604</ele>
        <time>2009-12-26T08:01:09Z</time>
      </trkpt>
      <trkpt lat="45.96022" lon="3.55837">
        <ele>596</ele>
        <time>2009-12-26T08:01:09Z</time>
      </trkpt>
      <trkpt lat="45.95996" lon="3.55805">
        <ele>592</ele>
        <time>2009-12-26T08:01:09Z</time>
      </trkpt>
      <trkpt lat="45.95982" lon="3.55778">
        <ele>589</ele>
        <time>2009-12-26T08:01:09Z</time>
      </trkpt>
      <trkpt lat="45.9598" lon="3.55703">
        <ele>586</ele>
        <time>2009-12-26T08:01:09Z</time>
      </trkpt>
      <trkpt lat="45.95943" lon="3.5561">
        <ele>582</ele>
        <time>2009-12-26T08:01:09Z</time>
      </trkpt>
      <trkpt lat="45.95899" lon="3.55514">
        <ele>583</ele>
        <time>2009-12-26T08:01:09Z</time>
      </trkpt>
      <trkpt lat="45.95866" lon="3.5545">
        <ele>583</ele>
        <time>2009-12-26T08:01:09Z</time>
      </trkpt>
      <trkpt lat="45.958" lon="3.55355">
        <ele>580</ele>
        <time>2009-12-26T08:01:09Z</time>
      </trkpt>
      <trkpt lat="45.95764" lon="3.55306">
        <ele>580</ele>
        <time>2009-12-26T08:01:09Z</time>
      </trkpt>
      <trkpt lat="45.95736" lon="3.55279">
        <ele>580</ele>
        <time>2009-12-26T08:01:09Z</time>
      </trkpt>
      <trkpt lat="45.957" lon="3.55261">
        <ele>578</ele>
        <time>2009-12-26T08:01:09Z</time>
      </trkpt>
      <trkpt lat="45.95658" lon="3.55118">
        <ele>574</ele>
        <time>2009-12-26T08:01:09Z</time>
      </trkpt>
      <trkpt lat="45.9565" lon="3.5507">
        <ele>574</ele>
        <time>2009-12-26T08:01:09Z</time>
      </trkpt>
      <trkpt lat="45.95633" lon="3.5504">
        <ele>575</ele>
        <time>2009-12-26T08:01:09Z</time>
      </trkpt>
      <trkpt lat="45.95644" lon="3.54973">
        <ele>573</ele>
        <time>2009-12-26T08:01:09Z</time>
      </trkpt>
      <trkpt lat="45.95648" lon="3.54937">
        <ele>573</ele>
        <time>2009-12-26T08:01:09Z</time>
      </trkpt>
      <trkpt lat="45.9563" lon="3.54871">
        <ele>573</ele>
        <time>2009-12-26T08:01:09Z</time>
      </trkpt>
      <trkpt lat="45.95598" lon="3.5481">
        <ele>576</ele>
        <time>2009-12-26T08:01:09Z</time>
      </trkpt>
      <trkpt lat="45.95574" lon="3.54721">
        <ele>576</ele>
        <time>2009-12-26T08:01:09Z</time>
      </trkpt>
      <trkpt lat="45.95556" lon="3.54592">
        <ele>575</ele>
        <time>2009-12-26T08:01:09Z</time>
      </trkpt>
      <trkpt lat="45.95529" lon="3.54415">
        <ele>578</ele>
        <time>2009-12-26T08:01:09Z</time>
      </trkpt>
      <trkpt lat="45.95547" lon="3.54261">
        <ele>579</ele>
        <time>2009-12-26T08:01:09Z</time>
      </trkpt>
      <trkpt lat="45.95567" lon="3.54173">
        <ele>580</ele>
        <time>2009-12-26T08:01:09Z</time>
      </trkpt>
      <trkpt lat="45.95632" lon="3.54002">
        <ele>570</ele>
        <time>2009-12-26T08:01:09Z</time>
      </trkpt>
      <trkpt lat="45.95652" lon="3.53955">
        <ele>563</ele>
        <time>2009-12-26T08:01:09Z</time>
      </trkpt>
      <trkpt lat="45.9566" lon="3.53904">
        <ele>558</ele>
        <time>2009-12-26T08:01:09Z</time>
      </trkpt>
      <trkpt lat="45.95667" lon="3.53852">
        <ele>554</ele>
        <time>2009-12-26T08:01:09Z</time>
      </trkpt>
      <trkpt lat="45.95678" lon="3.53822">
        <ele>550</ele>
        <time>2009-12-26T08:01:09Z</time>
      </trkpt>
      <trkpt lat="45.9569" lon="3.53782">
        <ele>544</ele>
        <time>2009-12-26T08:01:09Z</time>
      </trkpt>
      <trkpt lat="45.95675" lon="3.53751">
        <ele>545</ele>
        <time>2009-12-26T08:01:09Z</time>
      </trkpt>
      <trkpt lat="45.95652" lon="3.53713">
        <ele>545</ele>
        <time>2009-12-26T08:01:09Z</time>
      </trkpt>
      <trkpt lat="45.95653" lon="3.5366">
        <ele>539</ele>
        <time>2009-12-26T08:01:09Z</time>
      </trkpt>
      <trkpt lat="45.95655" lon="3.5363">
        <ele>536</ele>
        <time>2009-12-26T08:01:09Z</time>
      </trkpt>
      <trkpt lat="45.95631" lon="3.53597">
        <ele>535</ele>
        <time>2009-12-26T08:01:09Z</time>
      </trkpt>
      <trkpt lat="45.95604" lon="3.53583">
        <ele>536</ele>
        <time>2009-12-26T08:01:09Z</time>
      </trkpt>
      <trkpt lat="45.95594" lon="3.53565">
        <ele>535</ele>
        <time>2009-12-26T08:01:09Z</time>
      </trkpt>
      <trkpt lat="45.95602" lon="3.53525">
        <ele>529</ele>
        <time>2009-12-26T08:01:09Z</time>
      </trkpt>
      <trkpt lat="45.95644" lon="3.53529">
        <ele>526</ele>
        <time>2009-12-26T08:01:09Z</time>
      </trkpt>
      <trkpt lat="45.95699" lon="3.53527">
        <ele>523</ele>
        <time>2009-12-26T08:01:09Z</time>
      </trkpt>
      <trkpt lat="45.95738" lon="3.53527">
        <ele>519</ele>
        <time>2009-12-26T08:01:09Z</time>
      </trkpt>
      <trkpt lat="45.95776" lon="3.53505">
        <ele>511</ele>
        <time>2009-12-26T08:01:09Z</time>
      </trkpt>
      <trkpt lat="45.9579" lon="3.53434">
        <ele>505</ele>
        <time>2009-12-26T08:01:09Z</time>
      </trkpt>
      <trkpt lat="45.95812" lon="3.5333">
        <ele>499</ele>
        <time>2009-12-26T08:01:09Z</time>
      </trkpt>
      <trkpt lat="45.95817" lon="3.53256">
        <ele>497</ele>
        <time>2009-12-26T08:01:09Z</time>
      </trkpt>
      <trkpt lat="45.95857" lon="3.53191">
        <ele>493</ele>
        <time>2009-12-26T08:01:09Z</time>
      </trkpt>
      <trkpt lat="45.95883" lon="3.53157">
        <ele>490</ele>
        <time>2009-12-26T08:01:09Z</time>
      </trkpt>
      <trkpt lat="45.95897" lon="3.5313">
        <ele>488</ele>
        <time>2009-12-26T08:01:09Z</time>
      </trkpt>
      <trkpt lat="45.95906" lon="3.53093">
        <ele>484</ele>
        <time>2009-12-26T08:01:09Z</time>
      </trkpt>
      <trkpt lat="45.95928" lon="3.53073">
        <ele>482</ele>
        <time>2009-12-26T08:01:09Z</time>
      </trkpt>
      <trkpt lat="45.95951" lon="3.53072">
        <ele>480</ele>
        <time>2009-12-26T08:01:09Z</time>
      </trkpt>
      <trkpt lat="45.95962" lon="3.53052">
        <ele>478</ele>
        <time>2009-12-26T08:01:09Z</time>
      </trkpt>
      <trkpt lat="45.95961" lon="3.53032">
        <ele>477</ele>
        <time>2009-12-26T08:01:09Z</time>
      </trkpt>
      <trkpt lat="45.95944" lon="3.53009">
        <ele>475</ele>
        <time>2009-12-26T08:01:09Z</time>
      </trkpt>
      <trkpt lat="45.95919" lon="3.53016">
        <ele>477</ele>
        <time>2009-12-26T08:01:09Z</time>
      </trkpt>
      <trkpt lat="45.95884" lon="3.53006">
        <ele>475</ele>
        <time>2009-12-26T08:01:09Z</time>
      </trkpt>
      <trkpt lat="45.95878" lon="3.52988">
        <ele>473</ele>
        <time>2009-12-26T08:01:09Z</time>
      </trkpt>
      <trkpt lat="45.95881" lon="3.52972">
        <ele>471</ele>
        <time>2009-12-26T08:01:09Z</time>
      </trkpt>
      <trkpt lat="45.95901" lon="3.52942">
        <ele>469</ele>
        <time>2009-12-26T08:01:09Z</time>
      </trkpt>
      <trkpt lat="45.9593" lon="3.52939">
        <ele>469</ele>
        <time>2009-12-26T08:01:09Z</time>
      </trkpt>
      <trkpt lat="45.95985" lon="3.5293">
        <ele>466</ele>
        <time>2009-12-26T08:01:09Z</time>
      </trkpt>
      <trkpt lat="45.96025" lon="3.52917">
        <ele>461</ele>
        <time>2009-12-26T08:01:09Z</time>
      </trkpt>
      <trkpt lat="45.96058" lon="3.52897">
        <ele>458</ele>
        <time>2009-12-26T08:01:09Z</time>
      </trkpt>
      <trkpt lat="45.96129" lon="3.52948">
        <ele>454</ele>
        <time>2009-12-26T08:01:09Z</time>
      </trkpt>
      <trkpt lat="45.96176" lon="3.52991">
        <ele>450</ele>
        <time>2009-12-26T08:01:09Z</time>
      </trkpt>
      <trkpt lat="45.96248" lon="3.53017">
        <ele>450</ele>
        <time>2009-12-26T08:01:09Z</time>
      </trkpt>
      <trkpt lat="45.9632" lon="3.53022">
        <ele>452</ele>
        <time>2009-12-26T08:01:09Z</time>
      </trkpt>
      <trkpt lat="45.96382" lon="3.53008">
        <ele>446</ele>
        <time>2009-12-26T08:01:09Z</time>
      </trkpt>
      <trkpt lat="45.96381" lon="3.53047">
        <ele>445</ele>
        <time>2009-12-26T08:01:09Z</time>
      </trkpt>
      <trkpt lat="45.9637" lon="3.53119">
        <ele>439</ele>
        <time>2009-12-26T08:01:09Z</time>
      </trkpt>
      <trkpt lat="45.96343" lon="3.53159">
        <ele>435</ele>
        <time>2009-12-26T08:01:09Z</time>
      </trkpt>
      <trkpt lat="45.96308" lon="3.53187">
        <ele>437</ele>
        <time>2009-12-26T08:01:09Z</time>
      </trkpt>
      <trkpt lat="45.96262" lon="3.53264">
        <ele>433</ele>
        <time>2009-12-26T08:01:09Z</time>
      </trkpt>
      <trkpt lat="45.96261" lon="3.53312">
        <ele>430</ele>
        <time>2009-12-26T08:01:09Z</time>
      </trkpt>
      <trkpt lat="45.96264" lon="3.53343">
        <ele>434</ele>
        <time>2009-12-26T08:01:09Z</time>
      </trkpt>
      <trkpt lat="45.96283" lon="3.53379">
        <ele>435</ele>
        <time>2009-12-26T08:01:09Z</time>
      </trkpt>
      <trkpt lat="45.96289" lon="3.534">
        <ele>435</ele>
        <time>2009-12-26T08:01:09Z</time>
      </trkpt>
      <trkpt lat="45.963" lon="3.53415">
        <ele>433</ele>
        <time>2009-12-26T08:01:09Z</time>
      </trkpt>
      <trkpt lat="45.96325" lon="3.53406">
        <ele>430</ele>
        <time>2009-12-26T08:01:09Z</time>
      </trkpt>
      <trkpt lat="45.96353" lon="3.53358">
        <ele>434</ele>
        <time>2009-12-26T08:01:09Z</time>
      </trkpt>
      <trkpt lat="45.9637" lon="3.53315">
        <ele>436</ele>
        <time>2009-12-26T08:01:09Z</time>
      </trkpt>
      <trkpt lat="45.96391" lon="3.5328">
        <ele>436</ele>
        <time>2009-12-26T08:01:09Z</time>
      </trkpt>
      <trkpt lat="45.96456" lon="3.53212">
        <ele>435</ele>
        <time>2009-12-26T08:01:09Z</time>
      </trkpt>
      <trkpt lat="45.96511" lon="3.53171">
        <ele>442</ele>
        <time>2009-12-26T08:01:09Z</time>
      </trkpt>
      <trkpt lat="45.96543" lon="3.53144">
        <ele>444</ele>
        <time>2009-12-26T08:01:09Z</time>
      </trkpt>
      <trkpt lat="45.96583" lon="3.53105">
        <ele>447</ele>
        <time>2009-12-26T08:01:09Z</time>
      </trkpt>
      <trkpt lat="45.96614" lon="3.53057">
        <ele>445</ele>
        <time>2009-12-26T08:01:09Z</time>
      </trkpt>
      <trkpt lat="45.9666" lon="3.5296">
        <ele>442</ele>
        <time>2009-12-26T08:01:09Z</time>
      </trkpt>
      <trkpt lat="45.96684" lon="3.52928">
        <ele>441</ele>
        <time>2009-12-26T08:01:09Z</time>
      </trkpt>
      <trkpt lat="45.96717" lon="3.52911">
        <ele>437</ele>
        <time>2009-12-26T08:01:09Z</time>
      </trkpt>
      <trkpt lat="45.96748" lon="3.52891">
        <ele>427</ele>
        <time>2009-12-26T08:01:09Z</time>
      </trkpt>
      <trkpt lat="45.96756" lon="3.529">
        <ele>425</ele>
        <time>2009-12-26T08:01:09Z</time>
      </trkpt>
      <trkpt lat="45.96763" lon="3.52931">
        <ele>425</ele>
        <time>2009-12-26T08:01:09Z</time>
      </trkpt>
      <trkpt lat="45.96776" lon="3.52949">
        <ele>422</ele>
        <time>2009-12-26T08:01:09Z</time>
      </trkpt>
      <trkpt lat="45.96799" lon="3.52961">
        <ele>414</ele>
        <time>2009-12-26T08:01:09Z</time>
      </trkpt>
      <trkpt lat="45.96824" lon="3.52958">
        <ele>405</ele>
        <time>2009-12-26T08:01:09Z</time>
      </trkpt>
      <trkpt lat="45.96852" lon="3.52954">
        <ele>405</ele>
        <time>2009-12-26T08:01:09Z</time>
      </trkpt>
      <trkpt lat="45.9687" lon="3.52943">
        <ele>406</ele>
        <time>2009-12-26T08:01:09Z</time>
      </trkpt>
      <trkpt lat="45.96884" lon="3.52903">
        <ele>405</ele>
        <time>2009-12-26T08:01:09Z</time>
      </trkpt>
      <trkpt lat="45.96905" lon="3.52825">
        <ele>403</ele>
        <time>2009-12-26T08:01:09Z</time>
      </trkpt>
      <trkpt lat="45.96941" lon="3.52756">
        <ele>407</ele>
        <time>2009-12-26T08:01:09Z</time>
      </trkpt>
      <trkpt lat="45.96964" lon="3.52718">
        <ele>404</ele>
        <time>2009-12-26T08:01:09Z</time>
      </trkpt>
      <trkpt lat="45.96974" lon="3.52694">
        <ele>399</ele>
        <time>2009-12-26T08:01:09Z</time>
      </trkpt>
      <trkpt lat="45.97085" lon="3.52603">
        <ele>399</ele>
        <time>2009-12-26T08:01:09Z</time>
      </trkpt>
      <trkpt lat="45.97134" lon="3.52563">
        <ele>397</ele>
        <time>2009-12-26T08:01:09Z</time>
      </trkpt>
      <trkpt lat="45.9717" lon="3.52538">
        <ele>399</ele>
        <time>2009-12-26T08:01:09Z</time>
      </trkpt>
      <trkpt lat="45.97188" lon="3.52515">
        <ele>396</ele>
        <time>2009-12-26T08:01:09Z</time>
      </trkpt>
      <trkpt lat="45.97248" lon="3.52448">
        <ele>391</ele>
        <time>2009-12-26T08:01:09Z</time>
      </trkpt>
      <trkpt lat="45.97271" lon="3.52407">
        <ele>386</ele>
        <time>2009-12-26T08:01:09Z</time>
      </trkpt>
      <trkpt lat="45.97295" lon="3.52349">
        <ele>376</ele>
        <time>2009-12-26T08:01:09Z</time>
      </trkpt>
      <trkpt lat="45.97315" lon="3.52316">
        <ele>371</ele>
        <time>2009-12-26T08:01:09Z</time>
      </trkpt>
      <trkpt lat="45.97377" lon="3.52327">
        <ele>373</ele>
        <time>2009-12-26T08:01:09Z</time>
      </trkpt>
      <trkpt lat="45.97415" lon="3.52323">
        <ele>369</ele>
        <time>2009-12-26T08:01:09Z</time>
      </trkpt>
      <trkpt lat="45.97443" lon="3.52281">
        <ele>362</ele>
        <time>2009-12-26T08:01:09Z</time>
      </trkpt>
      <trkpt lat="45.97519" lon="3.5222">
        <ele>344</ele>
        <time>2009-12-26T08:01:09Z</time>
      </trkpt>
      <trkpt lat="45.97576" lon="3.52189">
        <ele>330</ele>
        <time>2009-12-26T08:01:09Z</time>
      </trkpt>
      <trkpt lat="45.97624" lon="3.52169">
        <ele>320</ele>
        <time>2009-12-26T08:01:09Z</time>
      </trkpt>
      <trkpt lat="45.97659" lon="3.52081">
        <ele>316</ele>
        <time>2009-12-26T08:01:09Z</time>
      </trkpt>
      <trkpt lat="45.97683" lon="3.52035">
        <ele>314</ele>
        <time>2009-12-26T08:01:09Z</time>
      </trkpt>
      <trkpt lat="45.97711" lon="3.51986">
        <ele>313</ele>
        <time>2009-12-26T08:01:09Z</time>
      </trkpt>
      <trkpt lat="45.97732" lon="3.51957">
        <ele>313</ele>
        <time>2009-12-26T08:01:09Z</time>
      </trkpt>
      <trkpt lat="45.97787" lon="3.51879">
        <ele>317</ele>
        <time>2009-12-26T08:01:09Z</time>
      </trkpt>
      <trkpt lat="45.97824" lon="3.51819">
        <ele>316</ele>
        <time>2009-12-26T08:01:09Z</time>
      </trkpt>
      <trkpt lat="45.97853" lon="3.51768">
        <ele>315</ele>
        <time>2009-12-26T08:01:09Z</time>
      </trkpt>
      <trkpt lat="45.97866" lon="3.51734">
        <ele>315</ele>
        <time>2009-12-26T08:01:09Z</time>
      </trkpt>
      <trkpt lat="45.97875" lon="3.51708">
        <ele>314</ele>
        <time>2009-12-26T08:01:09Z</time>
      </trkpt>
      <trkpt lat="45.97889" lon="3.51678">
        <ele>311</ele>
        <time>2009-12-26T08:01:09Z</time>
      </trkpt>
      <trkpt lat="45.97897" lon="3.51664">
        <ele>310</ele>
        <time>2009-12-26T08:01:09Z</time>
      </trkpt>
      <trkpt lat="45.97911" lon="3.5168">
        <ele>308</ele>
        <time>2009-12-26T08:01:09Z</time>
      </trkpt>
      <trkpt lat="45.97928" lon="3.51698">
        <ele>308</ele>
        <time>2009-12-26T08:01:09Z</time>
      </trkpt>
    </trkseg>
  </trk>
</gpx>